{"data":{"norad_id":54201,"epoch":"2026-09-20T12:42:34.718400Z","epoch_age_seconds":86597,"freshness":"FRESH","line1":"1 54201U 22141AW  26263.52956850  .00000357  00000+0  21698-4 0  9995","line2":"2 54201  53.1601 187.4492 0001295  86.4356 273.6794 15.34389961215571","mean_motion":15.34389961,"eccentricity":0.0001295,"inclination_deg":53.1601,"raan_deg":187.4492,"arg_perigee_deg":86.4356,"mean_anomaly_deg":273.6794,"bstar":2.1698e-5,"rev_number":21557,"period_min":93.848372095808,"perigee_km":461.84718571826,"apogee_km":463.61897106856,"semimajor_km":6840.8700783934,"source":"CELESTRAK","updated_at":"2026-09-21T09:00:33.116979Z"}}